Погода в Волочанке

Погода в Волочанке : погода сейчас, прогноз погоды и архив. Всё, что Вы хотите узнать о погоде в Волочанке!

Поиск расширенной информации на нашем сайте:

Другие новости

Новости СМИ2

Главная страница сайта

Новости сайта

03.07.2017

Напоминаем, что на нашем специализированном сайте Метеоцентр.Азия вы можете получить высокодетализированные автоматические прогнозы погоды по пунктам России, СНГ и мира в авиационном формате (включающие направление и скорость ветра, видимость, явления погоды, количество и форму облачности, нижнюю и верхнюю границу облачности).


Погода в Волочанке - сегодня

Время (UTC), дата Ветер
(°,м/с) 
Видим.   Явления Облачность Т
(°С)
Тd
(°С)
f(%) Тe
(°С)
Pmin
(гПа)
dP
(гПа)
Po
(мм)
O2
(г/м3)
Тmin Tmax R s Состояние
почвы
09 02.01.18 270 (З) 3{13}  4000 м  слаб. снег  10/10 600 м 
[Sc]
-7.9 -9.7 87 -11  1017.8  -0.6  759  316           
12 02.01.18 080 (В) 4000 м  слаб. снег  10/10 600 м 
[Sc]
-8.6 -10.1 89 -8  1016.8  -1  759  317    -6.1     
15 02.01.18 070 (В) 2000 м  снег  10/10 300 м 
[Ns]
-8.8 -10.3 89 -9  1015.5  -1.3  758  316           
18 02.01.18 140 (ЮВ) 4000 м  слаб. снег  10/10 600 м 
[Sc]
-9.3 -10.9 88 -11  1014.9  -0.6  757  317           
21 02.01.18 260 (З) 2000 м  снег  10/10 300 м 
[Ns]
-8.5 -10.4 86 -11  1013.6  -1.3  756  316           
00 03.01.18 220 (ЮЗ) 8-11{12}  2000 м  снег  10/10 300 м 
[Ns]
-7.5 -9.7 84 -13  1011.5  -2  755  314  -9.4    42  неравномерный
сухой снег
100% 
06 03.01.18 260 (З) 9-14{16}  2000 м  снег  10/10 300 м 
[Ns]
-7.5 -9.7 84 -14  1010.8  1.4  754  313           
09 03.01.18 260 (З) 8-12{14}  2000 м  снег  10/10 300 м 
[Ns]
-8.2 -10.5 83 -14  1014.2  3.3  757  315           
12 03.01.18 270 (З) 8-13{14}  4000 м  слаб. снег  10/5 600 м средняя 
[Sc|As op]
-12.3 -15 80 -19  1016.8  2.6  759  321    -6.2     
15 03.01.18 280 (З) 4{13}  10 км  {снег}  8/3 2000 м средняя, верхняя 
[Ac As|Cs]
-15.7 -18.4 80 -21  1018.1  1.2  760  326           
18 03.01.18 190 (Ю) 4000 м  слаб. снег  10/6 600 м средняя 
[Sc|Ac As]
-14.6 -16.6 85 -15  1017.6  -0.5  759  325           
21 03.01.18 110 (В) 4000 м  слаб. снег  10/10 600 м 
[Sc]
-12.8 -14.8 85 -16  1016  -1.6  758  322           
00 04.01.18 040 (СВ) 4000 м  слаб. снег  10/10 600 м 
[Sc]
-11.5 -13.5 85 -13  1013.7  -2.2  756  319  -17.2    0.4  43  неравномерный
сухой снег
100% 
03 04.01.18 350 (С) 4000 м  слаб. снег  10/10 600 м 
[Sc]
-10.9 -12.9 85 -15  1012.3  -1.4  755  318           
06 04.01.18 100 (В) 4000 м  слаб. снег  10/10 600 м 
[Sc]
-12.2 -14.2 85 -14  1011  -1.3  754  319           
09 04.01.18 130 (ЮВ) 4000 м  слаб. снег  10/10 600 м 
[Sc]
-12.5 -14.5 85 -18  1009  -1.9  753  319           
12 04.01.18 110 (В) 4000 м  слаб. снег  10/10 600 м 
[Sc]
-12.6 -14.6 85 -19  1005  -4  750  318    -0.6     
15 04.01.18 120 (ЮВ) 2000 м  снег  10/10 300 м 
[Ns]
-11.6 -13.6 85 -14  1004.4  -0.6  749  317           
18 04.01.18 220 (ЮЗ) 4000 м  слаб. снег  10/10 300 м 
[Ns]
-7.3 -11.7 71 -12  1003.1  -1.2  749  311           
21 04.01.18 230 (ЮЗ) 6-11{13}  4000 м  слаб. снег  10/6 600 м средняя 
[Sc|As op]
-7.9 -11.5 75 -13  1002.6  -0.6  748  311           
00 05.01.18 240 (ЮЗ) 6{11}  2000 м  снег  10/10 300 м 
[Ns]
-7.3 -9.4 85 -12  1002.3  -0.2  748  311  -12.7    46  неравномерный
сухой снег
100% 
03 05.01.18 270 (З) 4000 м  слаб. снег  10/10 600 м 
[Sc]
-7.8 -10.5 81 -11  1003.9  1.5  749  312           
06 05.01.18 230 (ЮЗ) 2000 м  снег  10/10 300 м 
[Ns]
-7.3 -9 88 -11  1003.8  749  311           
09 05.01.18 260 (З) 6-13{14}  2000 м  снег  10/10 300 м 
[Ns]
-7.8 -10 84 -13  1004.6  0.7  750  312           
12 05.01.18 260 (З) 8-15{17}  2000 м  снег  10/10 300 м 
[Ns]
-10 -12 85 -16  1005.3  0.7  750  315    -6.1     
Время (UTC), дата Ветер
(°,м/с) 
Видим.   Явления Облачность Т
(°С)
Тd
(°С)
f(%) Тe
(°С)
Pmin
(гПа)
dP
(гПа)
Po
(мм)
O2
(г/м3)
Тmin Tmax R s Состояние
почвы

Для получения пояснительной информации подведите курсор к названию столбца.

ПОГОДА в Волочанке - архив

Всё, что Вы хотите узнать о погоде в Волочанке - удобно и подробно!

Выберите нужную дату (начиная с 1 января 2015* года) и нажмите кнопку "Найти".
Будут отображены архивные сводки погоды по пункту Волочанка, начиная с указанной даты.


Отображать данные в формате CSV (для использования в таблицах Excel)


Внимание! Наш архив погоды предназначен исключительно для личного некоммерческого использования в познавательных целях. Если Вам необходимы официальные справки о состоянии погоды (для производственных, юридических, коммерческих и т.п. целей), обращайтесь в органы Росгидромета.

*Примечание: данная дата относится к архиву по метеостанциям СССР (Россия, СНГ, Балтия).
Архив по метеостанциям Зарубежной Европы и Азии (кроме Китая) хранится 10 дней, по другим регионам земного шара (Китай, Африка, Америка, Австралия, Океания) - 1 день.

Волочанка - район местоположения метеостанции


Название, широта, долгота, высота метеостанции:
Волочанка 71°ш. 94.6°д. 37 м над ур. моря [Российская Федерация]

Дополнительная информация

В oтличие oт бoльшинства пoгoдных сайтoв мы публикуем пoдрoбную метеoинфoрмацию в детальнoм прoфессиoнальнoм фoрмате.

Характеристики температуры и влажнoсти вoздуха измеряются на высoте 2 м в тени вдали oт зданий и деревьев.
Скoрoсть ветра измеряется на высoте 10 м (на урoвне рoста челoвека скoрoсть ветра ниже в 1.5-2 раза). Если метеoстанция нахoдится в гoрoде или в лесу, тo скoрoсть ветра занижена на 2-4 м/с пo сравнению с oткрытым местoм. Скoрoсть ветра над акватoриями крупных рек и oзёр, а также на вершинах хoлмoв на 2-5 м/с выше, чем в oбычных услoвиях.
Атмoсфернoе давление в разных тoчках местнoсти мoжет значительнo oтличаться oт давления на метеoстанции, в зависимoсти oт услoвий рельефа (при пoдъёме на 10 м давление пoнижается примернo на 1 мм рт.ст.).